Weather History for Menomonie, WI

Change the Weather History Date:

Thursday, May 23, 2013

  Actual Average (KEAU) Record (KEAU)
Temperature  
Mean Temperature 52 °F 60 °F  
Max Temperature 63 °F 72 °F 94 °F (1925)
Min Temperature 43 °F 48 °F 29 °F (1931)
Degree Days  
Heating Degree Days 12 7  
Month to date heating degree days 213  
Since 1 July heating degree days 7854  
Cooling Degree Days 0 1  
Month to date cooling degree days 17  
Year to date cooling degree days 21  
Growing Degree Days 2 (Base 50)    
Moisture  
Dew Point 32 °F    
Average Humidity 51    
Maximum Humidity 81    
Minimum Humidity 21    
Precipitation  
Precipitation 0.00 in 0.12 in 2.30 in (1975)
Month to date precipitation 2.52  
Year to date precipitation 8.70  
Snow  
Snow 0.00 in 0.00 in 0.00 in ()
Month to date snowfall 0.2  
Since 1 July snowfall 47.0  
Snow Depth -    
Sea Level Pressure  
Sea Level Pressure 30.10 in    
Wind  
Wind Speed 12 mph (North)    
Max Wind Speed 21 mph    
Max Gust Speed 26 mph    
Visibility 10 miles    
Events      
T = Trace of Precipitation, MM = Missing Value Source: NWS Daily Summary

Daily Weather History Graph

Daily Weather History Graph

Search for Another Location

Airport:

Trip Planner

Search our weather history database for the weather conditions in past years. The results will help you decide how hot, cold, wet, or windy it might be!

Date:

Astronomy

May. 23, 2013 Rise Set
Actual Time 5:30 AM CDT 8:38 PM CDT
Civil Twilight 4:55 AM CDT 9:13 PM CDT
Nautical Twilight 4:10 AM CDT 9:59 PM CDT
Astronomical Twilight 3:15 AM CDT 10:54 PM CDT
Moon 7:08 PM CDT (5/23) 4:20 AM CDT (5/23)
Length of Visible Light 16h 18m
Length of Day
15h 07m
Waxing Gibbous, 97% of the Moon is Illuminated
May 23
Waxing Gibbous
May 24
Full
May 31
Last Quarter
Jun 8
New
Jun 16
First Quarter

Hourly Weather History & Observations

Time (CDT) Temp. Windchill Dew Point Humidity Pressure Visibility Wind Dir Wind Speed Gust Speed Precip Events Conditions
12:15 AM 52.7 °F - 44.2 °F 73% 29.97 in 10.0 mi North 12.7 mph 19.6 mph N/A   Overcast
12:35 AM 52.9 °F - 43.7 °F 71% 29.97 in 10.0 mi NNE 12.7 mph 21.9 mph N/A   Overcast
12:55 AM 52.5 °F - 43.7 °F 72% 29.98 in 10.0 mi North 12.7 mph - N/A   Overcast
1:15 AM 52.2 °F - 43.5 °F 72% 29.99 in 10.0 mi North 13.8 mph - N/A   Overcast
1:35 AM 51.8 °F - 42.1 °F 69% 29.99 in 10.0 mi North 12.7 mph 23.0 mph N/A   Mostly Cloudy
1:55 AM 51.1 °F - 41.4 °F 69% 29.99 in 10.0 mi North 20.7 mph 26.5 mph N/A   Mostly Cloudy
2:15 AM 50.5 °F - 41.9 °F 72% 30.00 in 10.0 mi North 12.7 mph 18.4 mph N/A   Overcast
2:35 AM 49.6 °F - 41.7 °F 74% 30.01 in 10.0 mi North 16.1 mph 21.9 mph N/A   Scattered Clouds
2:55 AM 48.6 °F - 41.2 °F 76% 30.02 in 10.0 mi North 13.8 mph 20.7 mph N/A   Clear
3:15 AM 47.7 °F - 41.0 °F 78% 30.03 in 10.0 mi North 10.4 mph 18.4 mph N/A   Clear
3:35 AM 46.6 °F - 40.6 °F 80% 30.04 in 10.0 mi NNW 11.5 mph - N/A   Clear
3:55 AM 45.7 °F 41.0 °F 40.1 °F 81% 30.05 in 10.0 mi NNW 9.2 mph - N/A   Clear
4:15 AM 45.0 °F 39.3 °F 39.2 °F 80% 30.05 in 10.0 mi NNW 11.5 mph - N/A   Clear
4:35 AM 44.6 °F 39.2 °F 38.3 °F 79% 30.07 in 10.0 mi North 10.4 mph - N/A   Clear
4:55 AM 43.9 °F 38.3 °F 37.4 °F 78% 30.08 in 10.0 mi NNW 10.4 mph - N/A   Clear
5:15 AM 43.7 °F 38.1 °F 36.7 °F 76% 30.09 in 10.0 mi North 10.4 mph - N/A   Clear
5:35 AM 43.2 °F 37.4 °F 36.5 °F 77% 30.11 in 10.0 mi North 10.4 mph - N/A   Clear
5:55 AM 43.2 °F 36.6 °F 36.1 °F 76% 30.11 in 10.0 mi North 12.7 mph - N/A   Clear
6:15 AM 43.3 °F 37.2 °F 35.6 °F 74% 30.12 in 10.0 mi North 11.5 mph - N/A   Clear
6:35 AM 43.3 °F 36.1 °F 34.7 °F 72% 30.13 in 10.0 mi North 15.0 mph - N/A   Clear
6:55 AM 43.7 °F 36.9 °F 34.5 °F 70% 30.14 in 10.0 mi North 13.8 mph - N/A   Clear
7:15 AM 44.1 °F 37.4 °F 33.6 °F 67% 30.15 in 10.0 mi North 13.8 mph - N/A   Clear
7:35 AM 44.6 °F 38.4 °F 32.9 °F 64% 30.17 in 10.0 mi NNE 12.7 mph 19.6 mph N/A   Clear
7:55 AM 45.0 °F 38.2 °F 33.4 °F 64% 30.18 in 10.0 mi NNE 15.0 mph - N/A   Clear
8:15 AM 45.9 °F 39.1 °F 32.5 °F 60% 30.18 in 10.0 mi North 16.1 mph - N/A   Clear
8:35 AM 46.6 °F - 32.4 °F 58% 30.19 in 10.0 mi North 16.1 mph 19.6 mph N/A   Clear
8:55 AM 47.3 °F - 32.5 °F 57% 30.20 in 10.0 mi North 11.5 mph - N/A   Clear
9:15 AM 48.7 °F - 33.1 °F 55% 30.21 in 10.0 mi North 11.5 mph - N/A   Clear
9:35 AM 50.0 °F - 32.5 °F 51% 30.21 in 10.0 mi North 9.2 mph - N/A   Clear
9:55 AM 50.9 °F - 33.4 °F 51% 30.21 in 10.0 mi North 16.1 mph 21.9 mph N/A   Clear
10:15 AM 51.3 °F - 33.3 °F 50% 30.22 in 10.0 mi NNW 13.8 mph 18.4 mph N/A   Clear
10:35 AM 52.3 °F - 32.5 °F 47% 30.22 in 10.0 mi NNW 15.0 mph - N/A   Clear
10:55 AM 52.9 °F - 31.8 °F 45% 30.23 in 10.0 mi NNW 13.8 mph 18.4 mph N/A   Clear
11:15 AM 53.2 °F - 30.7 °F 42% - 10.0 mi NNW 15.0 mph 18.4 mph N/A   Clear
11:35 AM 54.5 °F - 31.5 °F 42% - 10.0 mi North 11.5 mph 17.3 mph N/A   Clear
11:55 AM 55.8 °F - 29.8 °F 37% - 10.0 mi North 13.8 mph 19.6 mph N/A   Clear
12:15 PM 56.1 °F - 30.0 °F 37% - 10.0 mi NNE 10.4 mph 17.3 mph N/A   Clear
12:35 PM 57.4 °F - 27.5 °F 32% - 10.0 mi North 12.7 mph 21.9 mph N/A   Clear
12:55 PM 57.4 °F - 27.9 °F 32% - 10.0 mi North 16.1 mph 21.9 mph N/A   Clear
1:15 PM 58.8 °F - 29.3 °F 33% - 10.0 mi North 9.2 mph 18.4 mph N/A   Clear
1:35 PM 59.2 °F - 29.7 °F 33% - 10.0 mi North 12.7 mph - N/A   Clear
2:15 PM 60.8 °F - 28.2 °F 29% - 10.0 mi North 17.3 mph 20.7 mph N/A   Clear
2:35 PM 60.8 °F - 27.9 °F 29% - 10.0 mi North 13.8 mph 18.4 mph N/A   Clear
3:35 PM 61.9 °F - 27.1 °F 27% - 10.0 mi NNE 12.7 mph 17.3 mph N/A   Clear
3:55 PM 62.4 °F - 28.0 °F 27% - 10.0 mi NNE 9.2 mph - N/A   Clear
4:15 PM 62.4 °F - 27.7 °F 27% - 10.0 mi North 6.9 mph 19.6 mph N/A   Clear
4:35 PM 62.4 °F - 28.4 °F 28% - 10.0 mi North 16.1 mph 19.6 mph N/A   Clear
5:35 PM 62.6 °F - 22.3 °F 21% - 10.0 mi NNE 11.5 mph 17.3 mph N/A   Clear
6:15 PM 61.7 °F - 21.0 °F 21% - 10.0 mi NNE 12.7 mph 18.4 mph N/A   Clear
6:35 PM 61.2 °F - 21.4 °F 22% - 10.0 mi North 11.5 mph - N/A   Clear
7:15 PM 59.9 °F - 19.4 °F 21% - 10.0 mi NNE 15.0 mph - N/A   Clear
7:35 PM 59.2 °F - 22.1 °F 24% - 10.0 mi NNE 10.4 mph - N/A   Clear
7:55 PM 58.3 °F - 23.2 °F 26% - 10.0 mi NNE 8.1 mph - N/A   Clear
8:15 PM 56.1 °F - 27.7 °F 34% - 10.0 mi NE 5.8 mph - N/A   Clear
8:35 PM 55.0 °F - 26.4 °F 33% - 10.0 mi NNE 6.9 mph - N/A   Clear
8:55 PM 53.6 °F - 27.7 °F 37% - 10.0 mi NE 4.6 mph - N/A   Clear
9:15 PM 52.3 °F - 28.8 °F 40% - 10.0 mi NE 5.8 mph - N/A   Clear
9:35 PM 52.0 °F - 28.6 °F 41% - 10.0 mi NE 6.9 mph - N/A   Clear
9:55 PM 50.9 °F - 29.3 °F 43% - 10.0 mi NNE 6.9 mph - N/A   Clear
10:15 PM 50.4 °F - 28.0 °F 42% - 10.0 mi NNE 8.1 mph - N/A   Clear
10:35 PM 49.6 °F - 28.0 °F 43% - 10.0 mi NNE 5.8 mph - N/A   Clear
10:55 PM 48.2 °F - 28.8 °F 47% - 10.0 mi North 4.6 mph - N/A   Clear
11:15 PM 48.4 °F - 27.5 °F 44% - 10.0 mi NNE 5.8 mph - N/A   Clear
11:35 PM 46.9 °F - 29.1 °F 50% - 10.0 mi ENE 4.6 mph - N/A   Clear
11:55 PM 46.6 °F - 28.9 °F 50% - 10.0 mi Calm Calm - N/A   Clear